GW0828 Weather Reports


Display with metric or nautical units.
time (UTC)temp
F
wind
direction
speed
MPH
gust
MPH
rain 1hr
in
rain 24hr
in
rain mn
in
humidity
%
barometer
mb
20260906093537 67 58 2.0 7.0 0.00 0.00 0.00 72 1019.4
20260906093102 67 54 3.0 7.0 0.00 0.00 0.00 72 1019.4
20260906092540 67 55 2.0 5.0 0.00 0.00 0.00 72 1019.3
20260906092037 67 59 2.0 5.0 0.00 0.00 0.00 72 1019.2
20260906091558 67 15 2.0 5.0 0.00 0.00 0.00 71 1019.1
20260906091039 67 64 2.0 5.0 0.00 0.00 0.00 71 1019.2
20260906090536 67 39 2.0 4.0 0.00 0.00 0.00 71 1019.2
20260906090116 67 46 1.0 3.0 0.00 0.00 0.00 70 1019.1
20260906085533 67 27 1.0 3.0 0.00 0.00 0.00 70 1019.1
20260906085036 67 30 1.0 3.0 0.00 0.00 0.00 70 1019.0
20260906084613 67 41 0.0 3.0 0.00 0.00 0.00 70 1019.0
20260906084037 67 41 1.0 4.0 0.00 0.00 0.00 71 1018.9
20260906083537 67 67 1.0 4.0 0.00 0.00 0.00 71 1019.0
20260906083056 67 65 2.0 4.0 0.00 0.00 0.00 70 1019.1
20260906082536 67 27 1.0 3.0 0.00 0.00 0.00 69 1019.1
20260906082037 67 36 1.0 3.0 0.00 0.00 0.00 69 1019.3
20260906081558 67 31 1.0 4.0 0.00 0.00 0.00 68 1019.3
20260906081037 67 31 1.0 6.0 0.00 0.00 0.00 68 1019.2
20260906080537 67 46 1.0 6.0 0.00 0.00 0.00 69 1019.2
20260906080122 67 41 3.0 10.0 0.00 0.00 0.00 68 1019.3
20260906075536 67 30 4.0 10.0 0.00 0.00 0.00 68 1019.0
20260906075036 66 56 4.0 9.0 0.00 0.00 0.00 68 1019.2
20260906074607 66 17 3.0 9.0 0.00 0.00 0.00 69 1019.1
20260906074034 66 359 4.0 9.0 0.00 0.00 0.00 69 1019.0
20260906073537 66 55 4.0 7.0 0.00 0.00 0.00 69 1019.1
20260906073109 66 36 3.0 8.0 0.00 0.00 0.00 69 1019.1
20260906072534 66 46 3.0 8.0 0.00 0.00 0.00 69 1019.2
20260906072036 66 13 4.0 8.0 0.00 0.00 0.00 68 1019.3
20260906071559 66 31 2.0 7.0 0.00 0.00 0.00 67 1019.2
20260906071037 67 347 1.0 3.0 0.00 0.00 0.00 66 1019.1
20260906070537 67 311 0.0 4.0 0.00 0.00 0.00 65 1019.4
20260906070058 67 0 1.0 5.0 0.00 0.00 0.00 65 1019.5
20260906065539 67 342 2.0 5.0 0.00 0.00 0.00 65 1019.6
20260906065038 68 5 1.0 4.0 0.00 0.00 0.00 62 1019.4
20260906064555 68 0 0.0 4.0 0.00 0.00 0.00 64 1019.4
20260906064037 68 33 1.0 4.0 0.00 0.00 0.00 61 1019.4
20260906063535 69 335 1.0 3.0 0.00 0.00 0.00 59 1019.3
20260906063052 69 0 0.0 2.0 0.00 0.00 0.00 59 1019.4
20260906062537 69 308 0.0 3.0 0.00 0.00 0.00 61 1019.5
20260906062038 69 0 0.0 3.0 0.00 0.00 0.00 62 1019.4
20260906061605 69 256 0.0 3.0 0.00 0.00 0.00 59 1019.3
20260906061037 69 256 0.0 5.0 0.00 0.00 0.00 59 1019.3
20260906060539 69 0 0.0 11.0 0.00 0.00 0.00 59 1019.1
20260906060059 69 38 4.0 11.0 0.00 0.00 0.00 59 1018.9
20260906055538 70 60 5.0 8.0 0.00 0.00 0.00 58 1018.9
20260906055038 70 25 5.0 10.0 0.00 0.00 0.00 57 1018.8
20260906054555 70 71 4.0 10.0 0.00 0.00 0.00 56 1018.8
20260906054039 70 57 5.0 10.0 0.00 0.00 0.00 56 1018.9
20260906053538 70 64 3.0 6.0 0.00 0.00 0.00 56 1019.1
20260906053058 71 0 0.0 9.0 0.00 0.00 0.00 54 1019.2
20260906052541 71 42 2.0 13.0 0.00 0.00 0.00 54 1018.9
20260906052039 71 69 7.0 14.0 0.00 0.00 0.00 53 1018.8
20260906051602 71 74 8.0 14.0 0.00 0.00 0.00 53 1018.8
20260906051039 72 58 7.0 15.0 0.00 0.00 0.00 51 1018.7
20260906050538 72 106 9.0 17.0 0.00 0.00 0.00 50 1018.7
20260906050106 73 81 9.0 17.0 0.00 0.00 0.00 48 1018.4
20260906045539 73 40 9.0 17.0 0.00 0.00 0.00 47 1018.3
20260906045039 73 74 7.0 15.0 0.00 0.00 0.00 47 1018.3
20260906044554 72 83 4.0 10.0 0.00 0.00 0.00 44 1018.4
20260906044040 72 54 2.0 7.0 0.00 0.00 0.00 43 1018.3
20260906043542 72 64 3.0 7.0 0.00 0.00 0.00 43 1018.1
20260906043103 72 69 2.0 5.0 0.00 0.00 0.00 45 1018.1
20260906042537 72 48 3.0 5.0 0.00 0.00 0.00 44 1017.9
20260906042040 73 13 3.0 5.0 0.00 0.00 0.00 41 1017.8
20260906041604 73 357 0.0 9.0 0.00 0.00 0.00 42 1017.8
20260906041039 73 15 2.0 9.0 0.00 0.00 0.00 41 1017.9
20260906040538 73 61 5.0 9.0 0.00 0.00 0.00 43 1018.0
20260906040059 73 42 2.0 5.0 0.00 0.00 0.00 47 1017.9
20260906035542 74 296 1.0 4.0 0.00 0.00 0.00 44 1017.7
20260906035038 74 302 0.0 8.0 0.00 0.00 0.00 43 1017.7
20260906034613 74 325 1.0 9.0 0.00 0.00 0.00 43 1017.6
20260906034038 74 2 3.0 9.0 0.00 0.00 0.00 44 1017.6
20260906033539 73 6 2.0 7.0 0.00 0.00 0.00 44 1017.6
20260906033103 74 347 3.0 8.0 0.00 0.00 0.00 44 1017.6
20260906032537 74 32 2.0 8.0 0.00 0.00 0.00 43 1017.5
20260906032039 74 40 4.0 8.0 0.00 0.00 0.00 43 1017.6
20260906031557 74 18 2.0 7.0 0.00 0.00 0.00 42 1017.7
20260906031038 75 15 3.0 7.0 0.00 0.00 0.00 42 1017.6
20260906030558 75 1 2.0 10.0 0.00 0.00 0.00 40 1017.5
20260906030057 76 49 4.0 10.0 0.00 0.00 0.00 39 1017.5
20260906025538 76 76 6.0 10.0 0.00 0.00 0.00 38 1017.5
20260906025038 76 96 3.0 7.0 0.00 0.00 0.00 38 1017.4
20260906024558 76 37 2.0 7.0 0.00 0.00 0.00 38 1017.3
20260906024039 76 48 4.0 11.0 0.00 0.00 0.00 39 1017.3
20260906023538 76 55 6.0 11.0 0.00 0.00 0.00 40 1017.4
20260906023101 76 56 1.0 8.0 0.00 0.00 0.00 44 1017.3
20260906022539 76 323 2.0 9.0 0.00 0.00 0.00 38 1017.2
20260906022038 77 1 1.0 12.0 0.00 0.00 0.00 38 1017.1
20260906021603 77 46 8.0 12.0 0.00 0.00 0.00 39 1017.2
20260906021044 77 41 1.0 4.0 0.00 0.00 0.00 40 1017.2
20260906020539 77 329 1.0 5.0 0.00 0.00 0.00 39 1017.0
20260906020100 77 6 1.0 7.0 0.00 0.00 0.00 38 1016.8
20260906015538 78 9 3.0 7.0 0.00 0.00 0.00 39 1016.8
20260906015038 79 19 2.0 6.0 0.00 0.00 0.00 38 1016.6
20260906014601 79 310 2.0 5.0 0.00 0.00 0.00 36 1016.6
20260906014038 79 319 1.0 5.0 0.00 0.00 0.00 36 1016.6
20260906013538 79 0 1.0 5.0 0.00 0.00 0.00 36 1016.5
20260906013107 79 329 2.0 9.0 0.00 0.00 0.00 36 1016.5
20260906012537 80 328 1.0 9.0 0.00 0.00 0.00 36 1016.6
20260906012038 80 338 3.0 9.0 0.00 0.00 0.00 35 1016.7
20260906011559 80 311 3.0 9.0 0.00 0.00 0.00 33 1016.7
20260906011038 81 327 3.0 9.0 0.00 0.00 0.00 33 1016.6
20260906010538 81 319 2.0 10.0 0.00 0.00 0.00 34 1016.7
20260906010056 81 0 2.0 12.0 0.00 0.00 0.00 32 1016.8
20260906005538 82 347 4.0 12.0 0.00 0.00 0.00 32 1016.7
20260906005038 82 347 6.0 12.0 0.00 0.00 0.00 31 1016.6
20260906004600 83 347 3.0 11.0 0.00 0.00 0.00 31 1016.7
20260906004037 83 347 5.0 13.0 0.00 0.00 0.00 30 1016.7
20260906003538 84 347 5.0 14.0 0.00 0.00 0.00 30 1016.7
20260906003056 85 347 5.0 19.0 0.00 0.00 0.00 29 1016.8
20260906002538 86 264 5.0 19.0 0.00 0.00 0.00 28 1016.8
20260906002041 87 250 9.0 19.0 0.00 0.00 0.00 27 1016.6
20260906001555 88 273 6.0 15.0 0.00 0.00 0.00 25 1016.6
20260906001038 88 276 7.0 15.0 0.00 0.00 0.00 25 1016.4
20260906000540 88 300 4.0 10.0 0.00 0.00 0.00 25 1016.5
20260906000108 88 302 2.0 6.0 0.00 0.00 0.00 26 1016.4
20260905235538 89 260 2.0 4.0 0.00 0.00 0.00 26 1016.4
20260905235038 89 260 0.0 2.0 0.00 0.00 0.00 26 1016.4
20260905234620 89 0 0.0 2.0 0.00 0.00 0.00 26 1016.4
20260905234038 89 37 0.0 4.0 0.00 0.00 0.00 28 1016.3
20260905233538 89 0 0.0 4.0 0.00 0.00 0.00 25 1016.3
20260905233058 89 0 0.0 4.0 0.00 0.00 0.00 28 1016.3
20260905232538 89 34 1.0 4.0 0.00 0.00 0.00 26 1016.2
20260905232038 89 11 1.0 4.0 0.00 0.00 0.00 27 1016.1
20260905231555 89 35 1.0 3.0 0.00 0.00 0.00 24 1016.1
20260905231038 89 0 1.0 3.0 0.00 0.00 0.00 24 1016.1
20260905230538 89 0 1.0 9.0 0.00 0.00 0.00 24 1016.0
20260905230105 90 87 2.0 9.0 0.00 0.00 0.00 26 1016.0
20260905225537 90 83 2.0 9.0 0.00 0.00 0.00 25 1015.9
20260905225038 90 129 4.0 9.0 0.00 0.00 0.00 24 1015.9
20260905224606 91 94 4.0 9.0 0.00 0.00 0.00 25 1016.0
20260905224039 91 0 1.0 10.0 0.00 0.00 0.00 22 1015.9
20260905223537 91 316 5.0 10.0 0.00 0.00 0.00 25 1015.9
20260905223057 90 85 3.0 10.0 0.00 0.00 0.00 26 1015.9
20260905222539 91 126 4.0 10.0 0.00 0.00 0.00 23 1015.8
20260905222038 91 108 3.0 12.0 0.00 0.00 0.00 22 1015.9
20260905221553 91 106 6.0 12.0 0.00 0.00 0.00 22 1015.9
20260905221038 90 129 3.0 11.0 0.00 0.00 0.00 23 1015.9
20260905220537 90 126 4.0 11.0 0.00 0.00 0.00 23 1015.9
20260905220113 90 40 4.0 12.0 0.00 0.00 0.00 22 1015.9
20260905215538 90 86 6.0 12.0 0.00 0.00 0.00 23 1016.0
20260905215038 90 73 8.0 12.0 0.00 0.00 0.00 23 1016.2
20260905214555 90 105 8.0 13.0 0.00 0.00 0.00 24 1016.2
20260905214037 90 86 8.0 13.0 0.00 0.00 0.00 25 1016.3
20260905213538 90 67 3.0 16.0 0.00 0.00 0.00 27 1016.3
20260905213054 90 83 10.0 16.0 0.00 0.00 0.00 24 1016.5
20260905212538 91 90 9.0 16.0 0.00 0.00 0.00 24 1016.5
20260905212038 91 77 9.0 15.0 0.00 0.00 0.00 23 1016.5
20260905211559 91 73 6.0 15.0 0.00 0.00 0.00 24 1016.6
20260905211038 91 119 5.0 12.0 0.00 0.00 0.00 22 1016.5
20260905210538 91 85 5.0 14.0 0.00 0.00 0.00 26 1016.6
20260905210106 91 123 5.0 16.0 0.00 0.00 0.00 23 1016.6
20260905205539 91 69 10.0 16.0 0.00 0.00 0.00 23 1016.7
20260905205040 91 328 8.0 16.0 0.00 0.00 0.00 22 1016.7
20260905204640 91 85 9.0 17.0 0.00 0.00 0.00 21 1016.8
20260905204038 91 65 9.0 17.0 0.00 0.00 0.00 24 1016.7
20260905203537 91 61 7.0 13.0 0.00 0.00 0.00 23 1016.8
20260905203108 91 98 7.0 13.0 0.00 0.00 0.00 23 1016.8
20260905202539 91 52 6.0 13.0 0.00 0.00 0.00 21 1016.9
20260905202038 91 63 7.0 13.0 0.00 0.00 0.00 21 1017.0
20260905201558 91 52 8.0 13.0 0.00 0.00 0.00 21 1017.0
20260905201037 91 50 6.0 15.0 0.00 0.00 0.00 22 1017.0
20260905200538 91 89 5.0 16.0 0.00 0.00 0.00 22 1017.1
20260905200105 91 88 10.0 16.0 0.00 0.00 0.00 20 1017.2
20260905195537 91 80 7.0 15.0 0.00 0.00 0.00 24 1017.3
20260905195038 91 88 9.0 15.0 0.00 0.00 0.00 21 1017.3
20260905194553 91 79 4.0 18.0 0.00 0.00 0.00 21 1017.3
20260905194038 92 18 7.0 18.0 0.00 0.00 0.00 20 1017.4
20260905193538 91 37 4.0 15.0 0.00 0.00 0.00 25 1017.3
20260905193102 91 116 9.0 16.0 0.00 0.00 0.00 21 1017.3
20260905192538 91 95 10.0 16.0 0.00 0.00 0.00 21 1017.3
20260905192039 91 27 5.0 21.0 0.00 0.00 0.00 23 1017.3
20260905191558 90 92 9.0 21.0 0.00 0.00 0.00 24 1017.4
20260905191039 91 82 12.0 21.0 0.00 0.00 0.00 22 1017.4
20260905190537 91 33 6.0 13.0 0.00 0.00 0.00 24 1017.5
20260905190056 91 20 7.0 14.0 0.00 0.00 0.00 23 1017.5
20260905185539 91 70 5.0 14.0 0.00 0.00 0.00 24 1017.5
20260905185038 90 50 3.0 8.0 0.00 0.00 0.00 26 1017.5
20260905184602 89 88 2.0 8.0 0.00 0.00 0.00 26 1017.6
20260905184038 89 79 1.0 6.0 0.00 0.00 0.00 25 1017.6
20260905183538 89 87 1.0 3.0 0.00 0.00 0.00 24 1017.6
20260905183057 89 21 0.0 4.0 0.00 0.00 0.00 23 1017.7
20260905182538 90 115 0.0 4.0 0.00 0.00 0.00 22 1017.7
20260905182038 90 0 0.0 9.0 0.00 0.00 0.00 21 1017.8
20260905181559 89 338 1.0 9.0 0.00 0.00 0.00 22 1017.9
20260905181038 88 82 5.0 9.0 0.00 0.00 0.00 21 1018.0
20260905180538 89 74 0.0 6.0 0.00 0.00 0.00 26 1018.1
20260905180056 89 0 2.0 6.0 0.00 0.00 0.00 23 1018.1
20260905175539 89 103 2.0 6.0 0.00 0.00 0.00 22 1018.1
20260905175038 89 77 1.0 4.0 0.00 0.00 0.00 23 1018.0
20260905174606 89 82 1.0 4.0 0.00 0.00 0.00 22 1018.1
20260905174038 90 280 0.0 7.0 0.00 0.00 0.00 23 1018.2
20260905173538 91 29 1.0 7.0 0.00 0.00 0.00 24 1018.2
20260905173058 90 300 2.0 7.0 0.00 0.00 0.00 20 1018.1
20260905172538 90 336 1.0 4.0 0.00 0.00 0.00 20 1018.2
20260905172038 89 306 0.0 3.0 0.00 0.00 0.00 25 1018.4
20260905171633 90 227 0.0 3.0 0.00 0.00 0.00 22 1018.3
20260905171037 89 308 0.0 3.0 0.00 0.00 0.00 23 1018.4
20260905170537 90 0 0.0 3.0 0.00 0.00 0.00 23 1018.4
20260905170104 89 342 0.0 3.0 0.00 0.00 0.00 23 1018.4
20260905165538 88 0 1.0 3.0 0.00 0.00 0.00 24 1018.4
20260905165038 88 269 0.0 3.0 0.00 0.00 0.00 25 1018.4
20260905164602 88 306 0.0 3.0 0.00 0.00 0.00 25 1018.3
20260905164037 87 0 0.0 3.0 0.00 0.00 0.00 24 1018.3
20260905163538 87 352 0.0 4.0 0.00 0.00 0.00 26 1018.3
20260905163101 87 319 1.0 4.0 0.00 0.00 0.00 25 1018.3
20260905162538 88 356 1.0 5.0 0.00 0.00 0.00 23 1018.3
20260905162037 87 0 1.0 5.0 0.00 0.00 0.00 29 1018.4
20260905161558 87 0 0.0 3.0 0.00 0.00 0.00 29 1018.4
20260905161038 86 0 1.0 4.0 0.00 0.00 0.00 26 1018.4
20260905160537 86 325 1.0 6.0 0.00 0.00 0.00 27 1018.4
20260905160107 85 359 1.0 6.0 0.00 0.00 0.00 30 1018.5
20260905155538 85 356 1.0 3.0 0.00 0.00 0.00 29 1018.4
20260905155037 84 0 0.0 3.0 0.00 0.00 0.00 29 1018.3
20260905154643 83 41 1.0 3.0 0.00 0.00 0.00 32 1018.4
20260905154038 82 73 1.0 3.0 0.00 0.00 0.00 33 1018.3
20260905153538 82 56 0.0 3.0 0.00 0.00 0.00 34 1018.3
20260905153101 80 0 0.0 3.0 0.00 0.00 0.00 33 1018.4
20260905152538 80 33 1.0 2.0 0.00 0.00 0.00 36 1018.4
20260905152038 80 0 0.0 2.0 0.00 0.00 0.00 39 1018.4
20260905151558 79 0 0.0 1.0 0.00 0.00 0.00 38 1018.3
20260905151036 78 0 0.0 2.0 0.00 0.00 0.00 39 1018.3
20260905150538 77 0 0.0 2.0 0.00 0.00 0.00 40 1018.3
20260905150103 77 0 0.0 2.0 0.00 0.00 0.00 38 1018.3
20260905145538 76 0 0.0 2.0 0.00 0.00 0.00 44 1018.4
20260905145037 75 0 1.0 3.0 0.00 0.00 0.00 41 1018.4
20260905144609 73 0 0.0 3.0 0.00 0.00 0.00 42 1018.5
20260905144038 72 0 1.0 4.0 0.00 0.00 0.00 46 1018.4
20260905143538 71 0 1.0 4.0 0.00 0.00 0.00 48 1018.3
20260905143105 70 323 1.0 4.0 0.00 0.00 0.00 47 1018.3
20260905142537 69 332 1.0 4.0 0.00 0.00 0.00 47 1018.3
20260905142038 69 320 0.0 6.0 0.00 0.00 0.00 47 1018.2
20260905141556 68 0 1.0 6.0 0.00 0.00 0.00 48 1018.2
20260905141038 68 284 2.0 5.0 0.00 0.00 0.00 49 1018.1
20260905140537 67 0 1.0 5.0 0.00 0.00 0.00 49 1018.1
20260905140105 66 256 1.0 4.0 0.00 0.00 0.00 51 1018.1
20260905135538 66 300 1.0 4.0 0.00 0.00 0.00 52 1018.1
20260905135036 65 278 0.0 4.0 0.00 0.00 0.00 54 1018.0
20260905134607 65 272 2.0 4.0 0.00 0.00 0.00 54 1018.1
20260905134035 64 246 2.0 6.0 0.00 0.00 0.00 55 1018.1
20260905133537 64 256 2.0 6.0 0.00 0.00 0.00 57 1018.1
20260905133058 63 0 1.0 4.0 0.00 0.00 0.00 58 1018.1
20260905132539 63 233 2.0 4.0 0.00 0.00 0.00 58 1018.0
20260905132038 62 244 2.0 4.0 0.00 0.00 0.00 59 1017.9
20260905131556 62 234 2.0 4.0 0.00 0.00 0.00 59 1017.9
20260905131037 61 249 1.0 3.0 0.00 0.00 0.00 59 1017.8
20260905130541 61 0 1.0 3.0 0.00 0.00 0.00 60 1017.7
20260905130057 61 0 1.0 3.0 0.00 0.00 0.00 60 1017.8
20260905125537 60 262 0.0 3.0 0.00 0.00 0.00 61 1017.6
20260905125038 60 250 1.0 3.0 0.00 0.00 0.00 61 1017.5
20260905124559 60 249 1.0 3.0 0.00 0.00 0.00 61 1017.4
20260905124037 60 0 0.0 2.0 0.00 0.00 0.00 61 1017.4
20260905123537 60 269 0.0 4.0 0.00 0.00 0.00 61 1017.3
20260905123103 60 0 0.0 4.0 0.00 0.00 0.00 61 1017.3
20260905122536 60 271 1.0 4.0 0.00 0.00 0.00 61 1017.3
20260905122039 60 326 0.0 2.0 0.00 0.00 0.00 65 1017.2
20260905121557 60 0 0.0 3.0 0.00 0.00 0.00 65 1017.3
20260905121038 60 250 0.0 3.0 0.00 0.00 0.00 61 1017.4
20260905120538 60 257 1.0 3.0 0.00 0.00 0.00 61 1017.3
20260905120057 60 0 0.0 2.0 0.00 0.00 0.00 60 1017.3
20260905115539 60 0 0.0 2.0 0.00 0.00 0.00 60 1017.2
20260905115037 60 0 0.0 3.0 0.00 0.00 0.00 60 1017.3
20260905114609 60 0 0.0 4.0 0.00 0.00 0.00 59 1017.2
20260905114037 61 359 2.0 4.0 0.00 0.00 0.00 60 1017.3
20260905113535 61 356 0.0 2.0 0.00 0.00 0.00 60 1017.3
20260905113102 61 310 0.0 2.0 0.00 0.00 0.00 60 1017.3
20260905112538 61 0 0.0 1.0 0.00 0.00 0.00 60 1017.3
20260905112037 62 0 0.0 1.0 0.00 0.00 0.00 61 1017.5
20260905111626 62 0 0.0 4.0 0.00 0.00 0.00 59 1017.5
20260905111037 62 0 0.0 4.0 0.00 0.00 0.00 58 1017.5
20260905110537 63 0 1.0 4.0 0.00 0.00 0.00 57 1017.4
20260905110107 64 248 0.0 4.0 0.00 0.00 0.00 57 1017.4
20260905105538 64 262 0.0 4.0 0.00 0.00 0.00 56 1017.3
20260905105040 65 265 0.0 8.0 0.00 0.00 0.00 54 1017.3
20260905104616 65 15 2.0 9.0 0.00 0.00 0.00 54 1017.1
20260905104038 65 51 4.0 9.0 0.00 0.00 0.00 55 1017.0
20260905103539 64 40 4.0 9.0 0.00 0.00 0.00 54 1017.1
20260905103059 64 29 2.0 9.0 0.00 0.00 0.00 54 1017.1
20260905102535 63 29 4.0 8.0 0.00 0.00 0.00 55 1017.1
20260905102038 63 37 4.0 8.0 0.00 0.00 0.00 54 1017.1
20260905101600 63 15 3.0 5.0 0.00 0.00 0.00 53 1017.1
20260905101037 63 19 2.0 5.0 0.00 0.00 0.00 53 1017.1
20260905100537 64 45 3.0 5.0 0.00 0.00 0.00 53 1017.1
20260905100059 64 23 3.0 9.0 0.00 0.00 0.00 51 1017.1
20260905095537 65 2 3.0 9.0 0.00 0.00 0.00 51 1017.1
20260905095037 64 60 5.0 9.0 0.00 0.00 0.00 51 1017.0
20260905094702 64 56 3.0 9.0 0.00 0.00 0.00 54 1017.1
20260905094038 65 68 5.0 9.0 0.00 0.00 0.00 54 1017.1